Flag for France Weather past 2 weeks in Toulouse, France

Now
64 °F

Overcast.


Feels Like: 64 °F
Forecast: 48 / 61 °F
Wind: 12 mph from West

Location: Toulouse / Blagnac

Current Time: Oct 21, 2014 at 9:17:59 AM

Latest Report: Oct 21, 2014 at 8:30 AM


Visibility: N/A

Pressure: 30.15 "Hg

Humidity: 83%

Dew point: 59 °F

Location of ToulouseLocation

Historic Weather in Toulouse — Graph

°F

Toulouse temperature yesterday

Maximum temperature yesterday: 82 °F (at 3:30 PM)
Minimum temperature yesterday: 61 °F (at 8:00 AM)
Average temperature yesterday: 71 °F

Past Weeks' High & Low Weather Summary

 TemperatureHumidityPressure
High82 °F (Oct 8, 3:30 PM)100% (Oct 10, 2:00 AM)30.21 "Hg (Oct 10, 2:00 AM)
Low46 °F (Oct 6, 8:30 AM)42% (Oct 8, 3:30 PM)29.59 "Hg (Oct 12, 8:00 AM)
Average67 °F77%29.90 "Hg
* Reported Oct 6 8:00 AM — Oct 21 8:00 AM, Toulouse, Weather by CustomWeather, © 2014

Note: Actual official high and low records may vary slightly from our data, if they occured in-between our weather recording intervals... More about our weather records

Advertising

Toulouse weather history for previous 24 hours

 ConditionsComfort  
Time TempWeatherWind HumidityBarometerVisibility
8:00 AM
Oct 21
63 °FOvercast.10 mph88%30.15 "HgN/A
7:30 AM63 °FMostly cloudy.9 mph88%30.15 "HgN/A
7:00 AM63 °FPartly cloudy.10 mph88%30.15 "Hg6 mi
6:30 AM63 °FOvercast.10 mph88%30.15 "HgN/A
6:00 AM63 °FOvercast.8 mph88%30.12 "HgN/A
5:30 AM63 °FLow clouds.6 mph88%30.12 "Hg4 mi
5:00 AM61 °FLow clouds.8 mph94%30.15 "Hg4 mi
4:30 AM63 °FPassing clouds.9 mph88%30.12 "Hg6 mi
4:00 AM61 °FPassing clouds.6 mph88%30.12 "HgN/A
3:30 AM63 °FClear.3 mph83%30.12 "HgN/A
3:00 AM63 °FClear.6 mph83%30.12 "HgN/A
2:30 AM64 °FClear.6 mph78%30.12 "HgN/A
2:00 AM64 °FClear.3 mph78%30.15 "HgN/A
1:30 AM63 °FClear.2 mph83%30.12 "HgN/A
1:00 AM63 °FClear.3 mph83%30.12 "HgN/A
12:30 AM64 °FClear.2 mph78%30.12 "HgN/A
12:00 AM68 °FClear.6 mph69%30.12 "HgN/A
11:30 PM
Oct 20
68 °FClear.7 mph69%30.12 "HgN/A
11:00 PM66 °FClear.8 mph83%30.12 "HgN/A
10:30 PM66 °FClear.6 mph88%30.12 "HgN/A
10:00 PM68 °FClear.5 mph83%30.09 "HgN/A
9:30 PM70 °FClear.2 mph78%30.09 "HgN/A
9:00 PM70 °FClear.3 mph78%30.09 "HgN/A
8:30 PM70 °FClear.7 mph78%30.09 "HgN/A
8:00 PM72 °FClear.5 mph73%30.09 "HgN/A
7:30 PM73 °FClear.3 mph69%30.07 "HgN/A
7:00 PM75 °FClear.3 mph65%30.07 "HgN/A
6:30 PM77 °FClear.6 mph61%30.07 "HgN/A
6:00 PM79 °FClear.7 mph58%30.07 "HgN/A
5:30 PM81 °FPassing clouds.8 mph54%30.07 "HgN/A
5:00 PM82 °FClear.8 mph51%30.07 "HgN/A
4:30 PM82 °FClear.8 mph51%30.07 "HgN/A
4:00 PM82 °FClear.6 mph55%30.07 "HgN/A
3:30 PM82 °FClear.5 mph51%30.07 "HgN/A
3:00 PM81 °FPassing clouds.3 mph58%30.09 "HgN/A
2:30 PM81 °FClear.3 mph58%30.09 "HgN/A
2:00 PM79 °FClear.5 mph58%30.12 "HgN/A
1:30 PM79 °FClear.5 mph61%30.12 "HgN/A
1:00 PM77 °FPassing clouds.7 mph65%30.15 "HgN/A
12:30 PM75 °FClear.7 mph69%30.15 "HgN/A
12:00 PM73 °FClear.5 mph78%30.15 "HgN/A
11:30 AM72 °FPassing clouds.7 mph78%30.15 "HgN/A
11:00 AM66 °FClear.2 mph88%30.15 "HgN/A
10:30 AM64 °FPassing clouds.3 mph94%30.15 "HgN/A
10:00 AM63 °FClear.5 mph94%30.15 "HgN/A
9:30 AM63 °FClear.5 mph94%30.15 "HgN/A
9:00 AM61 °FClear.3 mph94%30.15 "HgN/A
Weather by CustomWeather, © 2014

See weather overviewHow to use our weather pages